Dewpoint
48 41 41 37 34 28 25 28 30 30 29 33 44 45 44 44 42 30 59 62 63 66 68 69 70 69 68 68 69 69 69 69 70 69 68 67 66 64 64 65 64 66 65 64 63 64 64 65 65
43 37 39 34 27 21 21 25 28 31 34 42 38 41 41 40 56 58 59 62 65 66 68 68 69 69 68 68 68 69 69 69 69 69 67 67 64 64 64 64 65 65 65 65 64 63 63 63 64
39 34 33 30 22 20 19 23 28 31 40 33 39 43 45 47 56 58 59 63 65 66 68 68 69 69 68 69 68 68 68 68 69 68 67 65 63 64 63 64 65 64 65 65 64 63 63 63 63
36 32 30 24 27 24 23 23 28 31 30 34 40 40 47 55 57 58 61 64 65 67 68 69 69 69 68 68 67 67 68 68 68 68 67 65 63 63 63 65 65 65 65 65 64 63 63 64 63
33 32 28 26 26 24 22 28 29 27 29 34 37 38 50 56 59 60 62 64 65 67 69 68 69 69 69 68 67 67 67 68 68 68 66 65 63 63 63 64 64 62 63 64 64 64 64 65 65
30 29 26 24 24 24 29 29 27 27 28 34 40 47 51 55 58 61 62 64 65 66 69 69 67 68 68 68 67 67 67 68 68 68 66 64 63 63 62 63 62 61 65 65 65 65 65 64 65
28 28 25 23 22 26 27 28 25 25 28 30 43 43 45 53 60 62 62 64 65 66 68 68 68 67 66 66 66 66 67 67 68 68 64 63 62 64 64 64 62 61 63 65 64 65 64 64 64
29 28 26 25 19 23 23 29 25 25 27 39 43 33 39 54 61 62 62 63 65 66 67 67 67 67 66 66 64 64 65 66 66 65 63 62 63 63 63 62 63 62 63 64 64 63 64 63 63
31 25 24 24 19 20 24 25 26 27 27 30 40 38 44 58 61 61 61 62 64 65 66 66 67 67 66 66 64 63 63 64 64 63 61 61 62 61 60 61 62 61 61 63 62 63 62 62 62
28 24 23 23 21 20 23 23 23 25 27 29 32 40 54 60 60 60 60 60 62 62 64 65 66 65 66 65 65 64 63 64 63 63 62 61 60 60 60 59 61 61 60 63 62 61 59 58 58
28 22 21 19 20 22 22 22 25 23 25 25 27 33 55 58 59 59 60 60 60 62 62 63 65 65 66 65 65 64 63 62 62 62 61 59 58 59 60 61 61 60 58 60 59 58 56 57 57
21 23 20 26 25 22 22 22 22 24 25 24 26 38 55 58 58 59 59 60 62 62 62 63 64 65 65 65 64 64 62 61 61 61 60 58 57 58 59 59 60 60 59 59 57 55 55 55 55
21 22 22 25 23 22 23 22 22 21 22 23 29 46 54 58 58 59 60 60 62 62 62 63 64 64 65 65 64 63 63 61 59 59 59 58 56 56 58 58 59 58 57 56 54 54 54 54 54
21 20 23 23 22 23 19 18 20 18 21 23 29 36 48 56 57 58 59 59 60 63 63 63 64 64 64 65 64 64 63 62 60 59 58 58 56 55 56 57 57 57 56 54 53 53 53 53 53
19 17 18 20 23 22 23 13 17 18 18 19 22 26 38 49 55 57 59 59 59 61 63 63 63 64 64 64 64 64 64 63 61 59 58 57 56 55 54 56 56 57 55 53 51 50 51 50 50
15 14 14 14 22 24 15 11 9 22 21 19 17 20 24 29 47 53 56 58 59 60 61 63 63 63 64 64 64 64 64 63 63 60 58 57 56 55 54 54 55 55 54 52 50 49 49 48 48
15 11 12 10 23 24 17 12 16 24 23 22 22 21 21 21 23 30 49 55 57 59 60 62 63 63 63 63 63 63 63 63 63 62 59 57 56 55 54 53 54 54 54 53 50 48 48 47 46
12 6 12 7 18 23 22 19 20 21 22 22 22 22 22 22 23 24 25 40 52 56 58 60 62 63 63 63 63 63 63 63 63 62 60 58 57 56 54 54 54 54 53 53 51 48 47 46 47
13 7 7 15 24 23 21 20 20 22 22 22 21 20 20 21 22 23 25 27 34 51 54 58 60 62 63 62 62 62 62 62 63 62 61 59 58 57 56 56 54 53 52 52 51 48 44 43 40
14 13 14 18 24 22 22 19 20 20 21 22 21 20 20 20 20 23 25 26 29 36 49 54 58 60 62 62 62 62 61 62 62 62 62 61 59 58 57 56 55 54 53 52 50 46 42 45 39
16 12 14 12 18 18 13 10 9 14 18 19 20 21 25 25 26 29 30 32 35 31 31 46 53 58 61 62 62 59 60 59 62 62 62 62 60 60 58 57 56 54 54 52 51 49 47 45 38
13 16 16 17 15 7 16 -1 12 14 15 19 21 24 28 31 32 32 32 34 35 39 38 32 40 52 57 61 61 61 60 59 60 61 62 62 62 60 59 58 57 56 54 54 52 50 49 48 44
14 20 18 18 18 17 16 9 8 10 13 15 23 29 31 32 33 33 34 36 36 39 41 43 43 43 49 57 60 60 60 60 59 59 60 61 62 62 61 60 59 58 56 55 54 52 50 49 49
24 18 18 19 13 9 12 8 3 5 11 17 28 29 30 31 32 33 35 36 36 38 39 41 42 45 52 54 57 58 59 58 57 56 57 59 61 61 61 61 60 59 58 56 55 53 52 51 49
18 14 12 12 13 9 15 12 7 11 15 22 27 29 30 31 32 33 33 34 35 36 38 39 40 40 43 50 54 56 57 57 56 56 55 55 54 55 58 59 59 60 59 58 56 54 52 50 50
18 13 14 7 9 8 18 14 9 23 24 27 29 29 30 30 31 33 34 35 35 36 36 37 39 39 40 41 42 47 50 52 53 53 54 54 54 55 56 57 58 58 58 58 57 56 54 52 50
19 14 15 17 11 13 14 15 18 26 27 27 28 29 30 30 32 33 35 35 36 36 36 37 37 38 38 40 40 41 42 43 44 45 48 49 50 50 51 51 53 54 55 57 56 55 53 52 51
19 20 16 16 6 5 7 11 12 25 26 27 28 29 30 31 33 35 36 36 36 36 37 37 37 36 37 38 39 39 40 41 42 42 43 43 44 45 46 47 47 49 51 52 53 54 53 51 51
19 18 18 16 17 9 8 8 14 25 27 27 29 29 30 31 34 35 35 36 35 35 35 35 34 33 33 35 37 37 38 38 39 40 40 41 42 42 43 44 44 45 46 47 49 50 50 51 51
23 18 18 15 14 15 15 10 22 27 28 29 29 29 31 35 35 34 34 34 34 34 33 33 32 32 32 32 34 34 34 35 36 36 37 38 38 40 41 41 42 43 44 45 45 46 47 48 48
Lifted_Index
8 8 7 6 5 4 4 4 4 3 3 3 3 3 3 3 2 2 1 0 -1 -2 -3 -4 -4 -3 -2 -2 -2 -2 -2 -2 -3 -2 -2 -1 0 1 1 1 1 1 1 1 2 2 2 2 1
8 7 6 6 5 4 4 4 4 4 4 3 3 3 3 3 2 1 1 0 -1 -2 -3 -4 -3 -3 -2 -2 -2 -2 -2 -2 -3 -2 -1 -0 1 1 1 1 1 1 0 1 2 2 2 2 2
8 7 6 6 5 4 4 5 5 5 5 4 4 4 3 2 1 1 0 -0 -1 -3 -3 -3 -3 -3 -2 -2 -1 -1 -1 -2 -2 -2 -1 0 1 1 1 1 1 1 0 1 1 2 2 2 2
7 7 6 5 5 5 6 6 6 6 6 5 5 4 3 2 1 1 0 -0 -2 -3 -3 -3 -3 -3 -2 -2 -1 -1 -1 -2 -2 -2 -1 0 1 1 1 1 1 1 1 1 1 2 2 2 2
7 7 6 5 5 6 6 7 6 6 7 6 6 5 3 1 1 1 0 -0 -1 -2 -3 -3 -3 -3 -2 -1 -1 -1 -1 -2 -2 -2 -1 0 1 2 1 1 2 2 1 1 1 1 1 1 1
7 7 6 5 5 6 7 7 7 7 7 7 6 5 3 1 1 1 1 -0 -1 -2 -3 -3 -3 -2 -2 -1 -1 -1 -1 -1 -2 -2 -0 1 2 2 2 2 2 2 1 1 1 1 1 1 1
7 6 6 5 5 6 7 7 7 7 7 7 6 5 4 2 1 1 1 0 -1 -1 -2 -2 -2 -2 -1 -1 -1 -0 -0 -1 -1 -1 0 1 2 2 2 2 2 2 1 1 1 1 1 2 2
7 6 6 5 5 6 7 7 8 8 7 7 7 6 5 2 1 1 1 1 -0 -1 -2 -2 -2 -1 -1 -0 0 0 0 0 -0 0 1 2 2 2 2 2 3 3 2 2 2 2 2 2 3
7 6 6 5 6 6 7 7 8 8 8 8 7 7 5 2 1 1 1 1 0 -0 -1 -1 -1 -1 -1 -0 0 1 1 1 1 1 2 2 3 3 3 3 3 3 3 3 3 3 3 4 4
7 6 6 6 6 7 7 7 7 7 8 8 8 7 5 2 1 1 1 1 1 0 -0 -1 -1 -1 -0 0 1 1 2 2 2 2 3 3 4 4 4 4 4 4 4 4 4 4 5 5 5
7 6 6 6 7 7 7 7 7 7 7 8 8 7 5 2 1 0 1 1 1 0 -0 -1 -1 -0 0 0 1 2 2 3 3 3 3 4 4 4 4 4 4 5 5 5 5 6 6 6 6
7 7 7 7 7 7 7 7 7 7 7 8 8 7 4 2 1 0 0 0 0 0 -0 -0 -1 -0 -0 0 1 1 2 2 3 3 3 3 3 4 4 4 5 5 5 6 6 6 6 6 6
7 7 7 8 8 7 7 7 7 7 7 8 8 7 5 2 1 0 0 0 -0 -0 -0 -1 -1 -1 -1 -0 0 1 1 2 2 2 2 3 3 3 3 4 5 5 6 6 7 7 6 6 6
8 7 7 8 8 8 7 7 7 7 7 7 8 7 6 3 2 1 0 0 -0 -0 -0 -1 -1 -1 -1 -1 -0 0 1 1 1 1 2 2 2 2 2 3 4 5 6 6 6 6 6 6 6
8 7 7 7 8 8 7 6 6 7 7 7 7 7 7 5 3 2 1 0 0 -0 -0 -1 -1 -1 -1 -1 -1 -0 -0 0 1 1 1 2 2 2 2 2 3 4 5 5 6 6 6 6 6
7 6 6 7 7 7 6 5 6 7 7 7 7 7 7 7 6 4 3 2 1 0 -0 -1 -1 -1 -1 -1 -1 -1 -1 -0 0 1 1 1 2 2 2 2 3 3 4 4 5 5 5 5 5
5 5 5 6 7 7 6 5 6 7 7 7 7 7 7 7 8 7 6 5 3 1 0 -0 -1 -1 -1 -1 -1 -1 -1 -1 -0 0 1 2 2 2 2 2 3 3 3 4 4 4 4 4 4
4 4 4 5 6 7 6 6 6 7 7 7 7 7 7 8 8 9 9 8 6 4 2 1 0 -0 -1 -1 -1 -1 -1 -1 -1 -0 1 1 2 2 2 2 2 2 2 3 4 4 4 4 4
5 5 5 6 7 7 6 6 6 7 7 7 7 7 7 8 8 9 9 9 9 7 6 4 2 1 0 -1 -1 -1 -1 -1 -1 -1 -0 0 1 1 2 2 2 2 2 2 2 3 4 4 4
6 5 5 6 7 7 6 5 6 7 7 7 7 8 8 8 8 8 8 9 9 9 8 7 5 3 1 0 -0 -1 -1 -1 -1 -1 -1 -0 0 0 1 1 1 1 1 1 1 2 2 3 3
5 5 5 6 6 6 5 5 5 6 7 7 7 7 8 8 8 8 8 8 9 9 9 9 7 5 3 2 1 0 -0 -0 -1 -1 -1 -1 -0 -0 -0 0 0 1 1 1 1 1 1 2 2
5 6 6 6 5 5 5 4 4 5 6 6 7 8 8 8 9 9 9 9 9 9 9 9 9 7 5 3 2 1 1 0 -0 -0 -1 -0 -0 0 -0 -0 -0 0 0 0 1 1 1 1 2
6 7 7 6 5 4 4 3 3 4 5 6 7 8 8 9 9 9 9 9 9 9 9 9 9 8 7 5 3 2 1 1 1 0 0 0 0 0 0 0 -0 -0 -0 0 0 1 1 1 2
7 6 6 5 4 3 4 4 4 5 6 6 7 8 9 9 9 9 9 9 9 9 9 9 9 9 8 7 5 3 2 1 1 1 1 1 1 0 0 0 0 0 0 0 1 1 1 1 1
7 6 4 3 2 2 3 4 4 6 7 8 8 9 9 9 9 9 9 8 8 8 8 8 8 8 8 7 6 4 3 3 2 2 2 1 1 1 1 1 1 1 1 1 1 1 1 1 1
6 5 3 2 1 2 3 4 5 7 9 9 9 9 8 8 8 8 8 8 8 8 8 8 8 8 8 8 7 6 5 5 4 4 4 4 4 3 3 3 3 3 2 2 2 2 2 2 2
5 5 4 3 2 2 3 4 6 7 8 9 9 9 8 8 8 8 8 8 8 8 8 8 8 8 8 8 8 8 7 7 7 6 6 6 6 6 6 6 5 5 5 4 4 3 3 3 3
5 5 5 4 2 1 2 3 5 7 8 8 8 8 8 8 8 8 8 8 8 8 8 8 8 8 8 8 8 8 8 7 7 7 7 7 7 7 7 7 7 7 7 6 6 5 5 4 4
5 5 5 4 3 1 1 3 5 7 7 8 8 8 8 8 8 8 8 8 8 8 8 9 9 9 9 8 8 8 8 8 7 7 7 7 7 7 7 7 7 7 7 7 6 6 6 6 6
5 5 5 4 3 2 2 3 6 8 8 8 8 8 8 8 8 8 8 8 8 8 8 9 9 9 9 9 9 9 8 8 8 8 7 7 7 7 7 7 7 7 6 6 6 7 7 7 7